Weather History for Naples, FL

Change the Weather History Date:

Friday, December 14, 2012

  Actual Average Record
Temperature  
Mean Temperature 69 °F 67 °F  
Max Temperature 79 °F 77 °F 89 °F (1961)
Min Temperature 59 °F 57 °F 29 °F (1962)
Degree Days  
Heating Degree Days 0 2  
Month to date heating degree days 0 23  
Since 1 July heating degree days 13 37  
Cooling Degree Days 4 4  
Month to date cooling degree days 101 66  
Year to date cooling degree days 4067 3885  
Growing Degree Days 20 (Base 50)    
Moisture  
Dew Point 60 °F    
Average Humidity 77    
Maximum Humidity 100    
Minimum Humidity 54    
Precipitation  
Precipitation 0.00 in 0.05 in 2.20 in (1997)
Month to date precipitation 1.65 0.66  
Year to date precipitation 37.80 51.10  
Snow  
Snow 0.00 in - - ()
Month to date snowfall 0.0  
Since 1 July snowfall 0.0  
Snow Depth 0.00 in    
Sea Level Pressure  
Sea Level Pressure 30.10 in    
Wind  
Wind Speed 10 mph (NE)    
Max Wind Speed 18 mph    
Max Gust Speed 23 mph    
Visibility 10 miles    
Events      
T = Trace of Precipitation, MM = Missing Value Source: NWS Daily Summary

Daily Weather History Graph

Daily Weather History Graph

Search for Another Location

Airport:

Trip Planner

Search our weather history database for the weather conditions in past years. The results will help you decide how hot, cold, wet, or windy it might be!

Date:

Astronomy

Dec. 14, 2012 Rise Set
Actual Time 7:06 AM EST 5:37 PM EST
Civil Twilight 6:41 AM EST 6:02 PM EST
Nautical Twilight 6:12 AM EST 6:31 PM EST
Astronomical Twilight 5:44 AM EST 6:59 PM EST
Moon 8:14 AM EST (12/14) 7:22 PM EST (12/14)
Length of Visible Light 11h 21m
Length of Day
10h 30m
Waxing Crescent, 3% of the Moon is Illuminated
Dec 14
Waxing Crescent
Dec 20
First Quarter
Dec 28
Full
Jan 4
Last Quarter
Jan 11
New

Hourly Weather History & Observations

Time (EST) Temp. Dew Point Humidity Pressure Visibility Wind Dir Wind Speed Gust Speed Precip Events Conditions
12:53 AM 62.1 °F 57.9 °F 86% 30.11 in 10.0 mi NE 13.8 mph 18.4 mph N/A   Overcast
1:12 AM 62.6 °F 57.2 °F 82% 30.11 in 10.0 mi NNE 10.4 mph - N/A   Overcast
1:33 AM 62.6 °F 57.2 °F 82% 30.12 in 10.0 mi NNE 10.4 mph - N/A   Overcast
1:53 AM 62.1 °F 57.9 °F 86% 30.11 in 10.0 mi NE 12.7 mph - N/A   Overcast
2:53 AM 60.1 °F 57.0 °F 90% 30.10 in 10.0 mi NE 11.5 mph 18.4 mph N/A   Overcast
3:41 AM 60.8 °F 57.2 °F 88% 30.10 in 10.0 mi NNE 13.8 mph - N/A   Overcast
3:53 AM 60.1 °F 57.9 °F 93% 30.09 in 10.0 mi NNE 6.9 mph - N/A   Overcast
4:53 AM 60.1 °F 57.9 °F 93% 30.09 in 9.0 mi NNE 11.5 mph - N/A   Overcast
5:53 AM 60.1 °F 59.0 °F 96% 30.10 in 8.0 mi NNE 8.1 mph - N/A   Overcast
7:53 AM 61.0 °F 60.1 °F 97% 30.12 in 6.0 mi NE 12.7 mph - N/A   Overcast
8:53 AM 63.0 °F 61.0 °F 93% 30.14 in 8.0 mi NE 13.8 mph - N/A   Overcast
9:53 AM 66.9 °F 62.1 °F 84% 30.15 in 9.0 mi NE 13.8 mph - N/A   Mostly Cloudy
10:05 AM 66.2 °F 62.6 °F 88% 30.15 in 10.0 mi NE 11.5 mph - N/A   Mostly Cloudy
10:53 AM 72.0 °F 63.0 °F 73% 30.15 in 10.0 mi NE 9.2 mph - N/A   Scattered Clouds
11:53 AM 73.9 °F 63.0 °F 68% 30.12 in 10.0 mi NE 13.8 mph - N/A   Partly Cloudy
12:53 PM 77.0 °F 63.0 °F 62% 30.10 in 10.0 mi ENE 16.1 mph - N/A   Partly Cloudy
2:53 PM 79.0 °F 61.0 °F 54% 30.06 in 10.0 mi ENE 13.8 mph - N/A   Partly Cloudy
3:53 PM 78.1 °F 61.0 °F 56% 30.06 in 10.0 mi ENE 9.2 mph - N/A   Scattered Clouds
4:53 PM 75.9 °F 61.0 °F 60% 30.05 in 10.0 mi ENE 11.5 mph 20.7 mph N/A   Partly Cloudy
5:53 PM 72.0 °F 61.0 °F 68% 30.06 in 10.0 mi NE 8.1 mph - N/A   Clear
6:53 PM 70.0 °F 62.1 °F 76% 30.08 in 10.0 mi NE 3.5 mph - N/A   Clear
7:53 PM 69.1 °F 62.1 °F 78% 30.10 in 10.0 mi NNE 3.5 mph - N/A   Clear
8:53 PM 66.9 °F 62.1 °F 84% 30.12 in 10.0 mi NE 4.6 mph - N/A   Clear
9:53 PM 66.0 °F 62.1 °F 87% 30.11 in 10.0 mi NE 5.8 mph - N/A   Clear
10:53 PM 64.9 °F 61.0 °F 87% 30.11 in 10.0 mi NE 10.4 mph - N/A   Clear
11:53 PM 63.0 °F 61.0 °F 93% 30.09 in 10.0 mi NE 6.9 mph - N/A   Clear